Weather History for Adrian, MI

Change the Weather History Date:

Monday, October 28, 2013

  Actual Average Record
Temperature  
Mean Temperature 42 °F -  
Max Temperature 55 °F 58 °F 75 °F (1966)
Min Temperature 28 °F 35 °F 22 °F (1965)
Degree Days  
Heating Degree Days 24    
Moisture  
Dew Point 33 °F    
Average Humidity 73    
Maximum Humidity 92    
Minimum Humidity 53    
Precipitation  
Precipitation 0.00 in - - ()
Sea Level Pressure  
Sea Level Pressure 30.26 in    
Wind  
Wind Speed 5 mph (ENE)    
Max Wind Speed 10 mph    
Max Gust Speed -    
Visibility 10 miles    
Events      
Averages and records for this station are not official NWS values.
T = Trace of Precipitation, MM = Missing Value Source: NWS Daily Summary

Daily Weather History Graph

Daily Weather History Graph

Search for Another Location

Airport:

Trip Planner

Search our weather history database for the weather conditions in past years. The results will help you decide how hot, cold, wet, or windy it might be!

Date:

Astronomy

Oct. 28, 2013 Rise Set
Actual Time 8:04 AM EDT 6:35 PM EDT
Civil Twilight 7:35 AM EDT 7:04 PM EDT
Nautical Twilight 7:02 AM EDT 7:36 PM EDT
Astronomical Twilight 6:30 AM EDT 8:09 PM EDT
Moon 1:50 AM EDT (10/28) 3:21 PM EDT (10/28)
Length of Visible Light 11h 28m
Length of Day
10h 31m
Waning Crescent, 34% of the Moon is Illuminated
Oct 28
Waning Crescent
Nov 3
New
Nov 10
First Quarter
Nov 17
Full
Nov 25
Last Quarter

Hourly Weather History & Observations

Time (EDT) Temp. Windchill Dew Point Humidity Pressure Visibility Wind Dir Wind Speed Gust Speed Precip Events Conditions
12:53 AM 37.9 °F 34.4 °F 28.0 °F 68% 30.08 in 10.0 mi WSW 4.6 mph - N/A   Clear
1:53 AM 37.9 °F 34.4 °F 28.0 °F 68% 30.11 in 10.0 mi WNW 4.6 mph - N/A   Clear
2:53 AM 33.1 °F - 27.0 °F 78% 30.12 in 10.0 mi Calm Calm - N/A   Clear
3:53 AM 30.9 °F - 27.0 °F 85% 30.13 in 10.0 mi Calm Calm - N/A   Clear
4:53 AM 33.1 °F - 28.0 °F 82% 30.14 in 10.0 mi Calm Calm - N/A   Clear
5:53 AM 33.1 °F 30.0 °F 27.0 °F 78% 30.16 in 10.0 mi West 3.5 mph - N/A   Clear
6:53 AM 28.0 °F 24.2 °F 26.1 °F 92% 30.18 in 10.0 mi NW 3.5 mph - N/A   Clear
7:53 AM 28.9 °F - 27.0 °F 92% 30.22 in 10.0 mi Calm Calm - N/A   Partly Cloudy
8:53 AM 32.0 °F - 28.9 °F 88% 30.25 in 10.0 mi Calm Calm - N/A   Overcast
9:53 AM 39.0 °F - 33.1 °F 79% 30.27 in 10.0 mi Calm Calm - N/A   Overcast
10:53 AM 46.0 °F 41.9 °F 36.0 °F 68% 30.29 in 10.0 mi East 8.1 mph - N/A   Overcast
11:53 AM 48.0 °F - 37.0 °F 66% 30.30 in 10.0 mi East 10.4 mph - N/A   Overcast
12:53 PM 52.0 °F - 37.0 °F 57% 30.31 in 10.0 mi East 9.2 mph - N/A   Clear
1:53 PM 54.0 °F - 37.0 °F 53% 30.30 in 10.0 mi East 8.1 mph - N/A   Clear
2:53 PM 55.0 °F - 37.9 °F 53% 30.29 in 10.0 mi ENE 6.9 mph - N/A   Mostly Cloudy
3:53 PM 54.0 °F - 37.9 °F 55% 30.30 in 10.0 mi ENE 10.4 mph - N/A   Mostly Cloudy
4:53 PM 52.0 °F - 39.0 °F 61% 30.31 in 10.0 mi ENE 9.2 mph - N/A   Mostly Cloudy
5:53 PM 50.0 °F - 39.0 °F 66% 30.32 in 10.0 mi East 10.4 mph - N/A   Overcast
6:53 PM 46.0 °F 42.5 °F 37.9 °F 73% 30.33 in 10.0 mi East 6.9 mph - N/A   Clear
7:53 PM 45.0 °F 40.1 °F 37.9 °F 76% 30.36 in 10.0 mi East 9.2 mph - N/A   Partly Cloudy
8:53 PM 42.1 °F 36.6 °F 35.1 °F 76% 30.38 in 10.0 mi ENE 9.2 mph - N/A   Clear
9:53 PM 39.9 °F 35.1 °F 33.1 °F 77% 30.38 in 10.0 mi NE 6.9 mph - N/A   Clear
10:53 PM 39.0 °F 33.4 °F 32.0 °F 76% 30.40 in 10.0 mi NE 8.1 mph - N/A   Clear
11:53 PM 37.0 °F 31.6 °F 30.9 °F 79% 30.40 in 10.0 mi ENE 6.9 mph - N/A   Clear